TimeEST,TemperatureF,Dew PointF,Humidity,Sea Level PressureIn,VisibilityMPH,Wind Direction,Wind SpeedMPH,Gust SpeedMPH,PrecipitationIn,Events,Conditions,WindDirDegrees,DateUTC
12:15 AM,30.2,10.4,44,30.18,10.0,WSW,6.9,-,N/A,,Clear,250,2013-02-19 05:15:00
12:35 AM,30.2,12.2,47,30.18,10.0,WSW,4.6,-,N/A,,Clear,240,2013-02-19 05:35:00
12:55 AM,30.2,12.2,47,30.18,10.0,Calm,Calm,-,N/A,,Clear,0,2013-02-19 05:55:00
1:15 AM,30.2,15.8,55,30.16,10.0,Calm,Calm,-,N/A,,Clear,0,2013-02-19 06:15:00
1:35 AM,30.2,15.8,55,30.15,10.0,Calm,Calm,-,N/A,,Clear,0,2013-02-19 06:35:00
1:55 AM,30.2,17.6,60,30.15,10.0,Calm,Calm,-,N/A,,Clear,0,2013-02-19 06:55:00
2:15 AM,28.4,17.6,64,30.15,10.0,WSW,3.5,-,N/A,,Clear,240,2013-02-19 07:15:00
2:35 AM,30.2,19.4,64,30.14,10.0,SW,4.6,-,N/A,,Clear,230,2013-02-19 07:35:00
2:55 AM,30.2,19.4,64,30.14,10.0,WSW,4.6,-,N/A,,Clear,240,2013-02-19 07:55:00
3:15 AM,30.2,21.2,69,30.14,10.0,SW,3.5,-,N/A,,Clear,220,2013-02-19 08:15:00
3:35 AM,32.0,19.4,60,30.14,10.0,SW,4.6,-,N/A,,Mostly Cloudy,230,2013-02-19 08:35:00
3:55 AM,32.0,19.4,60,30.13,10.0,WSW,3.5,-,N/A,,Mostly Cloudy,240,2013-02-19 08:55:00
4:15 AM,32.0,19.4,60,30.13,10.0,SW,3.5,-,N/A,,Partly Cloudy,230,2013-02-19 09:15:00
4:35 AM,32.0,19.4,60,30.13,10.0,SW,4.6,-,N/A,,Clear,220,2013-02-19 09:35:00
4:55 AM,32.0,21.2,64,30.12,10.0,SSW,3.5,-,N/A,,Clear,210,2013-02-19 09:55:00
5:15 AM,32.0,21.2,64,30.11,10.0,SSW,3.5,-,N/A,,Clear,200,2013-02-19 10:15:00
5:35 AM,30.2,21.2,69,30.10,10.0,South,3.5,-,N/A,,Clear,190,2013-02-19 10:35:00
5:55 AM,28.4,21.2,74,30.09,10.0,South,3.5,-,N/A,,Clear,170,2013-02-19 10:55:00
6:15 AM,28.4,21.2,74,30.09,10.0,Calm,Calm,-,N/A,,Clear,0,2013-02-19 11:15:00
6:35 AM,26.6,19.4,74,30.08,10.0,Calm,Calm,-,N/A,,Clear,0,2013-02-19 11:35:00
6:55 AM,30.2,21.2,69,30.09,10.0,Calm,Calm,-,N/A,,Clear,0,2013-02-19 11:55:00
7:15 AM,32.0,23.0,69,30.09,10.0,South,4.6,-,N/A,,Clear,170,2013-02-19 12:15:00
7:35 AM,33.8,26.6,75,30.08,10.0,South,6.9,-,N/A,,Clear,170,2013-02-19 12:35:00
7:55 AM,35.6,28.4,75,30.08,10.0,South,6.9,-,N/A,,Clear,170,2013-02-19 12:55:00
8:15 AM,37.4,30.2,75,30.08,10.0,South,8.1,-,N/A,,Clear,180,2013-02-19 13:15:00
8:35 AM,39.2,32.0,75,30.07,10.0,SSW,9.2,-,N/A,,Clear,200,2013-02-19 13:35:00
8:55 AM,41.0,32.0,70,30.06,10.0,SSW,9.2,-,N/A,,Clear,200,2013-02-19 13:55:00
9:15 AM,41.0,32.0,70,30.05,10.0,SW,10.4,17.3,N/A,,Clear,220,2013-02-19 14:15:00
9:35 AM,42.8,32.0,66,30.05,9.0,SSW,13.8,18.4,N/A,,Clear,200,2013-02-19 14:35:00
9:55 AM,42.8,32.0,66,30.04,8.0,South,9.2,16.1,N/A,,Clear,190,2013-02-19 14:55:00
10:15 AM,44.6,32.0,61,30.03,10.0,South,15.0,20.7,N/A,,Clear,190,2013-02-19 15:15:00
10:35 AM,44.6,32.0,61,30.02,10.0,SSW,11.5,18.4,N/A,,Clear,200,2013-02-19 15:35:00
10:55 AM,44.6,32.0,61,30.01,9.0,South,11.5,-,N/A,,Clear,180,2013-02-19 15:55:00
11:15 AM,44.6,32.0,61,29.98,10.0,South,12.7,19.6,N/A,,Partly Cloudy,190,2013-02-19 16:15:00
11:35 AM,44.6,32.0,61,29.98,10.0,SSW,15.0,24.2,N/A,,Mostly Cloudy,200,2013-02-19 16:35:00
11:55 AM,44.6,32.0,61,29.97,9.0,SSW,12.7,18.4,N/A,,Overcast,210,2013-02-19 16:55:00
12:35 PM,46.4,33.8,62,29.94,10.0,SSW,11.5,20.7,N/A,,Partly Cloudy,200,2013-02-19 17:35:00
12:55 PM,46.4,33.8,62,29.93,10.0,SSW,10.4,19.6,N/A,,Clear,200,2013-02-19 17:55:00
1:15 PM,46.4,33.8,62,29.91,10.0,SSW,11.5,-,N/A,,Scattered Clouds,200,2013-02-19 18:15:00
1:35 PM,44.6,33.8,66,29.91,10.0,South,11.5,17.3,N/A,,Mostly Cloudy,190,2013-02-19 18:35:00
1:55 PM,44.6,35.6,71,29.89,9.0,SSW,10.4,17.3,N/A,Rain,Light Rain,200,2013-02-19 18:55:00
2:15 PM,42.8,37.4,81,29.88,3.0,SSW,11.5,17.3,0.01,Rain,Light Rain,200,2013-02-19 19:15:00
2:35 PM,42.8,39.2,87,29.87,4.0,South,10.4,-,0.04,Rain,Light Rain,190,2013-02-19 19:35:00
2:55 PM,42.8,39.2,87,29.85,5.0,South,8.1,-,0.06,Rain,Light Rain,190,2013-02-19 19:55:00
3:15 PM,42.8,39.2,87,29.84,3.0,South,6.9,-,0.02,Rain,Light Rain,190,2013-02-19 20:15:00
3:35 PM,42.8,41.0,93,29.82,3.0,South,6.9,-,0.04,Rain,Rain,180,2013-02-19 20:35:00
3:55 PM,42.8,41.0,93,29.80,1.8,South,8.1,-,0.09,Rain,Rain,180,2013-02-19 20:55:00
4:15 PM,42.8,42.8,100,29.78,2.5,South,9.2,-,0.01,Rain,Light Rain,170,2013-02-19 21:15:00
4:35 PM,42.8,42.8,100,29.77,1.5,South,10.4,-,0.03,,Overcast,170,2013-02-19 21:35:00
4:55 PM,42.8,42.8,100,29.76,1.5,South,10.4,-,0.06,Rain,Rain,180,2013-02-19 21:55:00
5:15 PM,42.8,42.8,100,29.74,0.8,South,8.1,-,N/A,Rain,Light Rain,170,2013-02-19 22:15:00
5:35 PM,44.6,44.6,100,29.73,2.5,South,12.7,17.3,0.02,Rain,Light Rain,190,2013-02-19 22:35:00
5:55 PM,44.6,44.6,100,29.72,1.0,South,11.5,16.1,0.03,Rain,Light Rain,190,2013-02-19 22:55:00
6:55 PM,44.6,44.6,100,29.68,5.0,WSW,6.9,18.4,0.01,Rain,Light Rain,250,2013-02-19 23:55:00
7:15 PM,44.6,44.6,100,29.67,3.0,West,8.1,-,0.03,Rain,Light Rain,260,2013-02-20 00:15:00
8:15 PM,42.8,42.8,100,29.66,6.0,WSW,6.9,-,N/A,,Overcast,240,2013-02-20 01:15:00
8:35 PM,42.8,42.8,100,29.65,5.0,West,4.6,-,N/A,,Overcast,270,2013-02-20 01:35:00
8:55 PM,42.8,42.8,100,29.64,6.0,West,5.8,-,N/A,,Mostly Cloudy,280,2013-02-20 01:55:00
9:15 PM,42.8,42.8,100,29.63,8.0,WNW,5.8,-,N/A,,Mostly Cloudy,290,2013-02-20 02:15:00
9:35 PM,42.8,42.8,100,29.64,3.0,WNW,6.9,-,0.02,Rain,Heavy Rain,300,2013-02-20 02:35:00
9:55 PM,42.8,41.0,93,29.63,8.0,WNW,5.8,20.7,0.05,,Mostly Cloudy,290,2013-02-20 02:55:00
10:15 PM,41.0,39.2,93,29.63,10.0,West,4.6,-,N/A,,Mostly Cloudy,280,2013-02-20 03:15:00
10:35 PM,41.0,39.2,93,29.62,10.0,West,5.8,-,N/A,,Mostly Cloudy,280,2013-02-20 03:35:00
10:55 PM,39.2,39.2,100,29.62,10.0,West,5.8,-,N/A,,Mostly Cloudy,280,2013-02-20 03:55:00
11:15 PM,39.2,37.4,93,29.63,10.0,West,5.8,-,N/A,,Mostly Cloudy,270,2013-02-20 04:15:00
11:35 PM,39.2,37.4,93,29.62,10.0,West,4.6,-,N/A,,Scattered Clouds,270,2013-02-20 04:35:00
11:55 PM,39.2,37.4,93,29.62,10.0,WNW,8.1,-,N/A,,Scattered Clouds,290,2013-02-20 04:55:00